Location: *
(42.2162°S, 170.6338°W)
Time: 10:26:30
(UTC+00:00)

Daily predictions for brighter satellites

Satellite Brightness Start Highest point End
(mag) Time Altitude Azimuth Time Altitude Azimuth Time Altitude Azimuth
Cosmos 2369 Rocket 4.4 15:06:25 13° S 15:09:49 21° SE 15:14:06 10° E
SL-16 R/B 3.4 15:14:07 37° SE 15:14:07 37° SE 15:17:30 10° SSE
Cosmos 1943 Rocket 3.3 15:28:48 29° SSE 15:30:58 41° ESE 15:36:16 10° NE
Cosmos 2297 4.4 15:34:29 47° NNE 15:34:29 47° NNE 15:38:28 10° NNE
Nadezhda 1 Rocket 4.5 15:32:48 10° S 15:39:05 60° E 15:45:22 10° NNE
Okean O Rocket 4.1 15:35:54 10° ENE 15:39:16 21° ESE 15:42:37 10° SSE
USA 234 3.9 15:37:34 10° SE 15:43:34 41° SSW 15:43:34 41° SSW
Cosmos 2237 Rocket 4.2 15:47:20 17° S 15:47:20 17° S 15:48:52 10° S
BREEZE-M DEB (TANK) 4.2 15:40:32 43° WNW 15:45:22 90° ENE 15:50:17 10° ESE
H-2A R/B 2.9 15:47:08 10° SSE 15:50:30 48° SE 15:50:30 48° SE
RESURS DK-1 4.3 15:55:17 22° NNE 15:55:17 22° NNE 15:56:47 10° NNE
SL-08 ROCKET BODY 4.2 15:53:59 24° N 15:57:40 90° W 16:03:39 10° S
ERS-2 3.9 15:55:45 10° SSE 15:57:36 27° SSE 15:57:36 27° SSE
Cosmos 1624 Rocket 4.3 16:04:07 54° NNW 16:04:07 54° NNW 16:08:21 10° N
CZ-3 R/B 3.9 15:52:06 20° NW 16:04:58 37° N 16:12:14 10° ENE
ISS -2.0 16:11:42 28° NE 16:11:42 28° NE 16:13:27 10° NE
Cosmos 371 Rocket 3.3 16:09:01 39° SSW 16:10:52 84° ESE 16:15:46 10° NNE
Cosmos 1607 3.9 16:07:52 28° NNW 16:11:23 83° ENE 16:17:41 10° SE
Cosmos 1943 4.1 16:08:52 10° N 16:14:19 50° ENE 16:19:51 10° SE
Cosmos 1420 Rocket 4.0 16:11:30 23° SSW 16:14:50 83° ESE 16:20:03 10° NNE
CZ-4C R/B 2.3 16:16:12 42° NNW 16:16:12 42° NNW 16:19:44 10° NNE
SMAP 4.4 16:11:44 10° NE 16:16:05 39° ESE 16:20:30 10° S
YAOGAN 6 4.4 16:17:04 10° NE 16:20:15 31° ESE 16:23:29 10° S
COSMOS 2455 3.4 16:23:15 36° NW 16:23:15 36° NW 16:27:57 10° N
CZ-4B R/B 2.6 16:19:11 10° SSE 16:22:37 44° E 16:25:59 10° N
Lacrosse 5 3.4 16:26:49 21° SSW 16:27:05 22° SSW 16:31:03 10° SSE
CZ-4B DEB 4.2 16:29:58 10° N 16:35:28 59° WNW 16:41:03 10° SSW
Cosmos 2181 Rocket 4.5 16:31:52 10° S 16:38:24 66° E 16:44:48 10° NNE
Meteor 1-27 4.1 16:33:09 10° SSW 16:38:49 79° W 16:44:27 10° N
Iridium 82 4.4 16:36:21 10° N 16:40:01 69° W 16:43:38 10° S
Cosmos 2221 3.2 16:36:07 10° S 16:40:33 57° E 16:44:54 10° NNE
PAYLOAD B 4.3 16:38:37 10° N 16:44:07 59° W 16:49:44 10° SSW
ARGOS Delta rocket 3.8 16:39:53 10° NNE 16:44:18 76° ESE 16:48:49 10° S
NOAA 6 4.1 16:40:08 10° N 16:45:14 57° W 16:50:26 10° SSW
CZ-4B R/B 3.2 16:43:45 10° N 16:49:26 74° WNW 16:55:10 10° SSW
Envisat 2.9 16:47:26 10° N 16:52:33 79° WNW 16:57:44 10° SSW
ASTEX 1 4.0 16:49:19 10° NNW 16:53:49 33° W 16:58:25 10° SSW
Cosmos 2369 Rocket 2.2 16:48:41 10° SSW 16:54:21 65° WNW 16:59:56 10° N
Cosmos 1953 Rocket 4.4 16:55:12 28° WSW 16:55:18 28° WSW 16:59:10 10° SSW
SL-16 R/B 3.5 16:56:02 20° WSW 16:56:30 21° SW 17:00:43 10° S
Cosmos 1656 Rocket 4.0 16:51:37 10° SSW 16:57:18 70° ESE 17:02:49 10° NNE
Cosmos 468 4.5 16:53:34 10° NNW 16:58:55 72° WSW 17:04:20 10° SSE
USA 276 2.6 17:00:03 19° NW 17:02:13 62° NE 17:05:30 10° ESE
Cosmos 1869 3.2 16:59:04 10° SSW 17:03:00 70° W 17:06:56 10° N
Cosmos 2263 4.1 16:57:36 10° SSW 17:03:16 76° WNW 17:08:52 10° NNE
Cosmos 304 Rocket 3.8 17:00:45 10° SSW 17:05:34 61° WNW 17:10:19 10° N
H-2A R/B 3.5 17:02:26 10° NNW 17:05:48 29° W 17:08:04 17° SW
Cosmos 1842 Rocket 3.6 17:03:12 10° SSW 17:07:38 61° W 17:11:59 10° N
Cosmos 2184 Rocket 4.5 17:02:49 10° N 17:08:56 65° E 17:15:07 10° SSE
Cosmos 1892 2.6 17:06:00 10° NNW 17:09:47 73° W 17:13:39 10° S
X-37B 3.3 17:07:58 10° N 17:10:18 19° NE 17:12:40 10° E
Cosmos 2074 Rocket 4.3 17:07:18 10° N 17:13:36 74° E 17:19:57 10° S
ADEOS Rocket 3.2 17:07:34 10° SSE 17:13:50 83° WSW 17:20:45 10° NNW
Cosmos 1943 Rocket 3.0 17:10:23 13° SW 17:14:31 29° WNW 17:19:18 10° NNW
Okean O Rocket 2.1 17:11:08 10° NNW 17:15:20 39° W 17:19:34 10° SSW
BREEZE-M DEB (TANK) 3.8 17:16:13 17° W 17:18:30 26° NW 17:20:45 10° N
NOAA 12 4.1 17:14:45 10° N 17:19:59 62° W 17:25:18 10° SSW
Shenzhou-11 Module 1.2 17:19:12 24° W 17:20:25 81° S 17:22:49 10° E
ATLAS 5 CENTAUR R/B 4.1 17:16:48 10° SSW 17:20:55 20° SSE 17:24:34 10° ESE
AQUARIUS 4.4 17:18:41 10° N 17:23:03 48° W 17:27:29 10° SSW
ERBS 2.3 17:21:42 10° NW 17:25:05 88° NE 17:28:33 10° SE
CORIOLIS 4.3 17:20:16 10° N 17:25:32 56° W 17:30:52 10° SSW
Cosmos 1452 Rocket 4.1 17:21:39 10° SW 17:26:28 35° W 17:31:13 10° NNW
H-2A R/B 3.8 17:24:47 10° SSW 17:26:57 13° WSW 17:27:37 13° WSW
SKYMED 2 4.0 17:22:50 10° SSE 17:27:16 71° ENE 17:31:37 10° N
Cosmos 1689 Rocket 2.3 17:24:22 10° S 17:27:21 48° WSW 17:30:15 10° NNW
Cosmos 1340 4.1 17:24:07 10° NNE 17:27:42 42° E 17:31:21 10° SSE
FengYun 1-2 T 4.3 17:24:09 10° N 17:29:50 77° WNW 17:35:37 10° SSW
Cosmos 494 Rocket 4.0 17:25:50 10° NNW 17:31:03 63° WSW 17:36:23 10° SSE
ERS-2 4.2 17:31:26 10° SW 17:32:13 11° WSW 17:32:13 11° WSW
Cosmos 2058 3.2 17:28:31 10° NNW 17:32:37 47° WSW 17:36:46 10° S
Cosmos 1331 Rocket 4.0 17:27:23 10° SSW 17:32:41 84° WNW 17:37:57 10° NNE
Cosmos 1603 4.4 17:31:18 10° WNW 17:36:18 32° SW 17:41:21 10° S
Cosmos 1606 4.4 17:33:18 10° S 17:36:58 37° ESE 17:40:36 10° NE
Cosmos 1408 2.7 17:34:16 10° NNW 17:37:51 50° W 17:41:28 10° S
SL-8 R/B 4.2 17:38:49 10° WSW 17:43:34 54° SSE 17:48:19 10° E
Cosmos 292 Rocket 4.3 17:44:34 10° SSW 17:49:30 67° ESE 17:54:21 10° NNE
CZ-4 R/B 1.8 17:45:29 10° NNE 17:49:39 73° ESE 17:53:48 10° S
